Time,TemperatureF,DewpointF,PressureIn,WindDirection,WindDirectionDegrees,WindSpeedMPH,WindSpeedGustMPH,Humidity,HourlyPrecipIn,Conditions,Clouds,dailyrainin,SoftwareType,DateUTC
2013-03-17 00:05:00,34.3,31.4,29.93,NNE,22,3.0,3.0,89,0.00,,,0.00,Wunderground v.1.15,2013-03-17 04:05:00,
2013-03-17 00:16:00,34.2,31.6,29.93,NNE,22,2.0,2.0,90,0.00,,,0.00,Wunderground v.1.15,2013-03-17 04:16:00,
2013-03-17 00:20:00,34.2,31.6,29.93,NNE,13,3.0,3.0,90,0.00,,,0.00,Wunderground v.1.15,2013-03-17 04:20:00,
2013-03-17 00:25:00,34.2,31.6,29.93,North,5,4.0,4.0,90,0.00,,,0.00,Wunderground v.1.15,2013-03-17 04:25:00,
2013-03-17 00:30:00,34.0,31.4,29.93,North,11,5.0,5.0,90,0.00,,,0.00,Wunderground v.1.15,2013-03-17 04:30:00,
2013-03-17 00:35:00,34.0,31.6,29.93,NNE,15,5.0,5.0,91,0.00,,,0.00,Wunderground v.1.15,2013-03-17 04:35:00,
2013-03-17 00:40:00,34.0,31.6,29.93,NE,40,5.0,7.0,91,0.00,,,0.00,Wunderground v.1.15,2013-03-17 04:40:00,
2013-03-17 00:45:00,33.9,31.6,29.93,NNE,28,4.0,7.0,91,0.00,,,0.00,Wunderground v.1.15,2013-03-17 04:45:00,
2013-03-17 00:50:00,33.9,31.6,29.93,NNE,28,2.0,3.0,91,0.00,,,0.00,Wunderground v.1.15,2013-03-17 04:50:00,
2013-03-17 01:05:00,33.7,31.4,29.93,NNE,28,1.0,1.0,91,0.00,,,0.00,Wunderground v.1.15,2013-03-17 05:05:00,
2013-03-17 01:10:00,33.9,31.6,29.93,NNE,28,1.0,1.0,91,0.00,,,0.00,Wunderground v.1.15,2013-03-17 05:10:00,
2013-03-17 01:20:00,33.9,31.8,29.94,NNE,28,0.0,0.0,92,0.00,,,0.00,Wunderground v.1.15,2013-03-17 05:20:00,
2013-03-17 01:25:00,33.9,31.8,29.94,NNE,28,0.0,0.0,92,0.00,,,0.00,Wunderground v.1.15,2013-03-17 05:25:00,
2013-03-17 01:35:00,34.2,31.8,29.94,NNE,28,0.0,1.0,91,0.00,,,0.00,Wunderground v.1.15,2013-03-17 05:35:00,
2013-03-17 01:45:00,34.2,31.8,29.94,NNE,28,0.0,0.0,91,0.00,,,0.00,Wunderground v.1.15,2013-03-17 05:45:00,
2013-03-17 01:55:00,34.2,31.8,29.95,NNE,28,0.0,0.0,91,0.00,,,0.00,Wunderground v.1.15,2013-03-17 05:55:00,
2013-03-17 02:05:00,34.3,31.9,29.95,NNE,28,1.0,1.0,91,0.00,,,0.00,Wunderground v.1.15,2013-03-17 06:05:00,
2013-03-17 02:10:00,34.3,31.9,29.95,NNE,28,1.0,2.0,91,0.00,,,0.00,Wunderground v.1.15,2013-03-17 06:10:00,
2013-03-17 02:15:00,34.3,31.9,29.95,West,280,1.0,3.0,91,0.00,,,0.00,Wunderground v.1.15,2013-03-17 06:15:00,
2013-03-17 02:25:00,34.5,32.1,29.96,West,280,1.0,2.0,91,0.00,,,0.00,Wunderground v.1.15,2013-03-17 06:25:00,
2013-03-17 02:30:00,34.5,32.1,29.96,West,280,1.0,1.0,91,0.00,,,0.00,Wunderground v.1.15,2013-03-17 06:30:00,
2013-03-17 02:35:00,34.5,32.1,29.96,West,280,0.0,2.0,91,0.00,,,0.00,Wunderground v.1.15,2013-03-17 06:35:00,
2013-03-17 02:40:00,34.6,32.2,29.96,West,280,1.0,4.0,91,0.00,,,0.00,Wunderground v.1.15,2013-03-17 06:40:00,
2013-03-17 02:45:00,34.6,32.0,29.97,West,280,1.0,4.0,90,0.00,,,0.00,Wunderground v.1.15,2013-03-17 06:45:00,
2013-03-17 02:55:00,34.8,31.9,29.97,West,280,1.0,3.0,89,0.00,,,0.00,Wunderground v.1.15,2013-03-17 06:55:00,
2013-03-17 03:00:00,34.9,32.0,29.97,West,280,1.0,2.0,89,0.00,,,0.00,Wunderground v.1.15,2013-03-17 07:00:00,
2013-03-17 03:05:00,34.9,31.7,29.97,NNW,333,2.0,2.0,88,0.00,,,0.00,Wunderground v.1.15,2013-03-17 07:05:00,
2013-03-17 03:10:00,34.9,31.7,29.97,NNW,333,3.0,3.0,88,0.00,,,0.00,Wunderground v.1.15,2013-03-17 07:10:00,
2013-03-17 03:20:00,34.9,31.4,29.97,NNW,333,2.0,5.0,87,0.00,,,0.00,Wunderground v.1.15,2013-03-17 07:20:00,
2013-03-17 03:30:00,34.9,31.7,29.97,NNE,12,3.0,5.0,88,0.00,,,0.00,Wunderground v.1.15,2013-03-17 07:30:00,
2013-03-17 03:35:00,34.9,31.7,29.98,NNE,12,4.0,5.0,88,0.00,,,0.00,Wunderground v.1.15,2013-03-17 07:35:00,
2013-03-17 03:40:00,34.9,31.7,29.98,NNE,12,3.0,3.0,88,0.00,,,0.00,Wunderground v.1.15,2013-03-17 07:40:00,
2013-03-17 03:45:00,34.8,31.6,29.98,NNE,12,1.0,3.0,88,0.00,,,0.00,Wunderground v.1.15,2013-03-17 07:45:00,
2013-03-17 03:50:00,34.8,31.6,29.98,NNE,12,1.0,1.0,88,0.00,,,0.00,Wunderground v.1.15,2013-03-17 07:50:00,
2013-03-17 04:00:00,34.8,31.6,29.98,NNE,12,0.0,1.0,88,0.00,,,0.00,Wunderground v.1.15,2013-03-17 08:00:00,
2013-03-17 04:05:00,34.8,31.6,29.98,NNE,12,0.0,1.0,88,0.00,,,0.00,Wunderground v.1.15,2013-03-17 08:05:00,
2013-03-17 04:15:00,34.8,31.9,29.98,NNE,12,1.0,1.0,89,0.00,,,0.00,Wunderground v.1.15,2013-03-17 08:15:00,
2013-03-17 04:25:00,34.8,31.9,29.98,NNE,12,1.0,2.0,89,0.00,,,0.00,Wunderground v.1.15,2013-03-17 08:25:00,
2013-03-17 04:30:00,34.8,31.9,29.97,NNE,12,1.0,1.0,89,0.00,,,0.00,Wunderground v.1.15,2013-03-17 08:30:00,
2013-03-17 04:40:00,34.8,31.9,29.97,NNE,12,1.0,1.0,89,0.00,,,0.00,Wunderground v.1.15,2013-03-17 08:40:00,
2013-03-17 04:45:00,34.8,31.9,29.97,NNE,12,1.0,2.0,89,0.00,,,0.00,Wunderground v.1.15,2013-03-17 08:45:00,
2013-03-17 04:50:00,34.8,31.9,29.98,NNE,12,1.0,1.0,89,0.00,,,0.00,Wunderground v.1.15,2013-03-17 08:50:00,
2013-03-17 04:55:00,34.8,31.9,29.97,NNE,12,1.0,2.0,89,0.00,,,0.00,Wunderground v.1.15,2013-03-17 08:55:00,
2013-03-17 05:05:00,34.8,31.6,29.98,NNE,12,1.0,2.0,88,0.00,,,0.00,Wunderground v.1.15,2013-03-17 09:05:00,
2013-03-17 05:10:00,34.8,31.9,29.98,NNE,12,1.0,1.0,89,0.00,,,0.00,Wunderground v.1.15,2013-03-17 09:10:00,
2013-03-17 05:15:00,34.8,31.6,29.99,NNE,12,1.0,1.0,88,0.00,,,0.00,Wunderground v.1.15,2013-03-17 09:15:00,
2013-03-17 05:25:00,34.8,31.6,29.99,NNE,12,1.0,2.0,88,0.00,,,0.00,Wunderground v.1.15,2013-03-17 09:25:00,
2013-03-17 05:30:00,34.8,31.9,30.00,NNE,12,1.0,2.0,89,0.00,,,0.00,Wunderground v.1.15,2013-03-17 09:30:00,
2013-03-17 05:35:00,34.8,31.9,30.00,NNE,12,1.0,2.0,89,0.00,,,0.00,Wunderground v.1.15,2013-03-17 09:35:00,
2013-03-17 05:45:00,34.6,31.7,30.00,NNE,12,1.0,1.0,89,0.00,,,0.00,Wunderground v.1.15,2013-03-17 09:45:00,
2013-03-17 05:50:00,34.6,31.7,30.00,NNW,346,1.0,6.0,89,0.00,,,0.00,Wunderground v.1.15,2013-03-17 09:50:00,
2013-03-17 06:00:00,34.8,31.9,30.01,NW,326,3.0,3.0,89,0.00,,,0.00,Wunderground v.1.15,2013-03-17 10:00:00,
2013-03-17 06:05:00,34.6,31.4,30.01,NW,304,3.0,3.0,88,0.00,,,0.00,Wunderground v.1.15,2013-03-17 10:05:00,
2013-03-17 06:10:00,34.8,31.6,30.01,NW,304,2.0,2.0,88,0.00,,,0.00,Wunderground v.1.15,2013-03-17 10:10:00,
2013-03-17 06:15:00,34.6,31.7,30.01,NW,310,2.0,2.0,89,0.00,,,0.00,Wunderground v.1.15,2013-03-17 10:15:00,
2013-03-17 06:25:00,34.6,31.7,30.02,NNW,342,3.0,3.0,89,0.00,,,0.00,Wunderground v.1.15,2013-03-17 10:25:00,
2013-03-17 06:30:00,34.6,31.7,30.03,NNW,342,2.0,2.0,89,0.00,,,0.00,Wunderground v.1.15,2013-03-17 10:30:00,
2013-03-17 06:40:00,34.8,31.9,30.04,NNW,342,1.0,1.0,89,0.00,,,0.00,Wunderground v.1.15,2013-03-17 10:40:00,
2013-03-17 06:45:00,34.8,31.9,30.04,NNW,342,1.0,1.0,89,0.00,,,0.00,Wunderground v.1.15,2013-03-17 10:45:00,
2013-03-17 06:55:00,34.8,31.9,30.05,NNW,342,2.0,2.0,89,0.00,,,0.00,Wunderground v.1.15,2013-03-17 10:55:00,
2013-03-17 07:00:00,34.8,31.9,30.05,NNW,342,1.0,2.0,89,0.00,,,0.00,Wunderground v.1.15,2013-03-17 11:00:00,
2013-03-17 07:05:00,34.8,31.9,30.05,NNW,342,2.0,2.0,89,0.00,,,0.00,Wunderground v.1.15,2013-03-17 11:05:00,
2013-03-17 07:15:00,34.6,32.0,30.07,NNW,342,1.0,2.0,90,0.00,,,0.00,Wunderground v.1.15,2013-03-17 11:15:00,
2013-03-17 07:25:00,34.6,32.0,30.08,NNW,342,1.0,2.0,90,0.00,,,0.00,Wunderground v.1.15,2013-03-17 11:25:00,
2013-03-17 07:30:00,34.6,32.2,30.07,NNW,342,2.0,2.0,91,0.00,,,0.00,Wunderground v.1.15,2013-03-17 11:30:00,
2013-03-17 07:35:00,34.8,32.4,30.08,NNW,342,2.0,2.0,91,0.00,,,0.00,Wunderground v.1.15,2013-03-17 11:35:00,
2013-03-17 07:40:00,34.8,32.4,30.08,NNW,342,2.0,5.0,91,0.00,,,0.00,Wunderground v.1.15,2013-03-17 11:40:00,
2013-03-17 07:45:00,34.6,32.0,30.08,NNE,13,4.0,5.0,90,0.00,,,0.00,Wunderground v.1.15,2013-03-17 11:45:00,
2013-03-17 07:55:00,34.9,31.4,30.08,NNE,17,7.0,7.0,87,0.00,,,0.00,Wunderground v.1.15,2013-03-17 11:55:00,
2013-03-17 08:00:00,35.0,30.9,30.09,NNE,14,6.0,6.0,85,0.00,,,0.00,Wunderground v.1.15,2013-03-17 12:00:00,
2013-03-17 08:05:00,35.0,30.9,30.09,NNE,16,5.0,6.0,85,0.00,,,0.00,Wunderground v.1.15,2013-03-17 12:05:00,
2013-03-17 08:15:00,35.0,30.4,30.10,NW,323,6.0,7.0,83,0.00,,,0.00,Wunderground v.1.15,2013-03-17 12:15:00,
2013-03-17 08:20:00,35.0,29.8,30.10,NNW,343,6.0,8.0,81,0.00,,,0.00,Wunderground v.1.15,2013-03-17 12:20:00,
2013-03-17 08:30:00,35.2,28.4,30.11,NNE,18,8.0,9.0,76,0.00,,,0.00,Wunderground v.1.15,2013-03-17 12:30:00,
2013-03-17 08:40:00,35.3,28.2,30.12,NNW,343,7.0,9.0,75,0.00,,,0.00,Wunderground v.1.15,2013-03-17 12:40:00,
2013-03-17 08:45:00,35.2,28.1,30.13,NNE,27,9.0,11.0,75,0.00,,,0.00,Wunderground v.1.15,2013-03-17 12:45:00,
2013-03-17 08:55:00,35.0,27.9,30.13,NNE,14,8.0,10.0,75,0.00,,,0.00,Wunderground v.1.15,2013-03-17 12:55:00,
2013-03-17 09:00:00,35.0,27.9,30.13,North,355,8.0,11.0,75,0.00,,,0.00,Wunderground v.1.15,2013-03-17 13:00:00,
2013-03-17 09:05:00,35.0,27.9,30.13,North,360,9.0,11.0,75,0.00,,,0.00,Wunderground v.1.15,2013-03-17 13:05:00,
2013-03-17 09:15:00,34.9,27.1,30.13,NNE,26,9.0,10.0,73,0.00,,,0.00,Wunderground v.1.15,2013-03-17 13:15:00,
2013-03-17 09:25:00,34.5,26.4,30.14,NNE,17,12.0,21.0,72,0.00,,,0.00,Wunderground v.1.15,2013-03-17 13:25:00,
2013-03-17 09:35:00,34.0,26.3,30.16,North,5,12.0,14.0,73,0.00,,,0.00,Wunderground v.1.15,2013-03-17 13:35:00,
2013-03-17 09:40:00,33.9,26.2,30.15,North,355,11.0,11.0,73,0.00,,,0.00,Wunderground v.1.15,2013-03-17 13:40:00,
2013-03-17 09:50:00,33.7,26.0,30.15,NNE,12,12.0,14.0,73,0.00,,,0.00,Wunderground v.1.15,2013-03-17 13:50:00,
2013-03-17 09:55:00,33.4,25.3,30.16,North,355,13.0,16.0,72,0.00,,,0.00,Wunderground v.1.15,2013-03-17 13:55:00,
2013-03-17 10:05:00,33.0,24.6,30.16,NNE,23,11.0,16.0,71,0.00,,,0.00,Wunderground v.1.15,2013-03-17 14:05:00,
2013-03-17 10:10:00,33.0,23.9,30.16,North,5,11.0,11.0,69,0.00,,,0.00,Wunderground v.1.15,2013-03-17 14:10:00,
2013-03-17 10:20:00,33.1,23.7,30.17,NNW,338,11.0,20.0,68,0.00,,,0.00,Wunderground v.1.15,2013-03-17 14:20:00,
2013-03-17 10:25:00,32.7,22.6,30.17,North,355,11.0,20.0,66,0.00,,,0.00,Wunderground v.1.15,2013-03-17 14:25:00,
2013-03-17 10:35:00,32.7,22.2,30.17,North,360,9.0,10.0,65,0.00,,,0.00,Wunderground v.1.15,2013-03-17 14:35:00,
2013-03-17 10:45:00,32.8,22.0,30.17,North,355,10.0,10.0,64,0.00,,,0.00,Wunderground v.1.15,2013-03-17 14:45:00,
2013-03-17 10:55:00,33.3,22.4,30.18,NNE,22,9.0,11.0,64,0.00,,,0.00,Wunderground v.1.15,2013-03-17 14:55:00,
2013-03-17 11:01:00,33.4,22.9,30.18,North,5,8.0,11.0,65,0.00,,,0.00,Wunderground v.1.15,2013-03-17 15:01:00,
2013-03-17 11:10:00,33.7,23.5,30.18,North,349,8.0,11.0,66,0.00,,,0.00,Wunderground v.1.15,2013-03-17 15:10:00,
2013-03-17 11:15:00,33.7,21.3,30.18,North,9,9.0,11.0,60,0.00,,,0.00,Wunderground v.1.15,2013-03-17 15:15:00,
2013-03-17 11:25:00,33.7,22.1,30.18,NNE,22,9.0,9.0,62,0.00,,,0.00,Wunderground v.1.15,2013-03-17 15:25:00,
2013-03-17 11:30:00,33.7,21.3,30.17,NNE,24,9.0,9.0,60,0.00,,,0.00,Wunderground v.1.15,2013-03-17 15:30:00,
2013-03-17 11:35:00,34.0,21.6,30.17,NNE,33,10.0,10.0,60,0.00,,,0.00,Wunderground v.1.15,2013-03-17 15:35:00,
2013-03-17 11:45:00,34.0,20.8,30.17,NNW,348,10.0,10.0,58,0.00,,,0.00,Wunderground v.1.15,2013-03-17 15:45:00,
2013-03-17 11:50:00,33.9,20.7,30.18,NNW,331,12.0,12.0,58,0.00,,,0.00,Wunderground v.1.15,2013-03-17 15:50:00,
2013-03-17 11:55:00,34.2,20.9,30.19,NNW,333,10.0,10.0,58,0.00,,,0.00,Wunderground v.1.15,2013-03-17 15:55:00,
2013-03-17 12:00:00,34.0,20.8,30.19,North,5,9.0,9.0,58,0.00,,,0.00,Wunderground v.1.15,2013-03-17 16:00:00,
2013-03-17 12:10:00,34.3,20.6,30.20,NNW,332,7.0,14.0,57,0.00,,,0.00,Wunderground v.1.15,2013-03-17 16:10:00,
2013-03-17 12:20:00,34.6,20.9,30.20,NNW,344,8.0,8.0,57,0.00,,,0.00,Wunderground v.1.15,2013-03-17 16:20:00,
2013-03-17 12:35:00,35.2,20.6,30.19,NNW,338,8.0,9.0,55,0.00,,,0.00,Wunderground v.1.15,2013-03-17 16:35:00,
2013-03-17 12:46:00,35.2,19.8,30.19,NNW,332,10.0,10.0,53,0.00,,,0.00,Wunderground v.1.15,2013-03-17 16:46:00,
2013-03-17 12:50:00,35.5,19.6,30.18,ENE,73,9.0,10.0,52,0.00,,,0.00,Wunderground v.1.15,2013-03-17 16:50:00,
2013-03-17 13:00:00,35.9,20.0,30.18,NE,48,7.0,9.0,52,0.00,,,0.00,Wunderground v.1.15,2013-03-17 17:00:00,
2013-03-17 13:10:00,36.0,20.1,30.18,North,360,9.0,9.0,52,0.00,,,0.00,Wunderground v.1.15,2013-03-17 17:10:00,
2013-03-17 13:20:00,35.9,19.5,30.17,NE,34,9.0,9.0,51,0.00,,,0.00,Wunderground v.1.15,2013-03-17 17:20:00,
2013-03-17 13:25:00,35.9,20.0,30.18,North,5,8.0,11.0,52,0.00,,,0.00,Wunderground v.1.15,2013-03-17 17:25:00,
2013-03-17 13:35:00,35.9,19.5,30.18,NW,325,7.0,11.0,51,0.00,,,0.00,Wunderground v.1.15,2013-03-17 17:35:00,
2013-03-17 13:40:00,36.2,20.7,30.18,NNW,332,7.0,7.0,53,0.00,,,0.00,Wunderground v.1.15,2013-03-17 17:40:00,
2013-03-17 13:50:00,36.9,20.4,30.18,North,5,7.0,7.0,51,0.00,,,0.00,Wunderground v.1.15,2013-03-17 17:50:00,
2013-03-17 14:00:00,36.9,20.9,30.17,NNW,342,7.0,7.0,52,0.00,,,0.00,Wunderground v.1.15,2013-03-17 18:00:00,
2013-03-17 14:10:00,37.2,20.7,30.17,NE,34,7.0,7.0,51,0.00,,,0.00,Wunderground v.1.15,2013-03-17 18:10:00,
2013-03-17 14:20:00,37.0,20.5,30.17,NE,36,7.0,12.0,51,0.00,,,0.00,Wunderground v.1.15,2013-03-17 18:20:00,
2013-03-17 14:25:00,36.9,20.4,30.17,NE,35,7.0,13.0,51,0.00,,,0.00,Wunderground v.1.15,2013-03-17 18:25:00,
2013-03-17 14:35:00,37.0,21.0,30.17,NNW,345,9.0,10.0,52,0.00,,,0.00,Wunderground v.1.15,2013-03-17 18:35:00,
2013-03-17 14:45:00,37.8,21.3,30.17,NNE,14,7.0,9.0,51,0.00,,,0.00,Wunderground v.1.15,2013-03-17 18:45:00,
2013-03-17 14:50:00,37.9,21.4,30.17,NNE,28,7.0,7.0,51,0.00,,,0.00,Wunderground v.1.15,2013-03-17 18:50:00,
2013-03-17 15:00:00,38.3,20.8,30.17,NNE,15,5.0,7.0,49,0.00,,,0.00,Wunderground v.1.15,2013-03-17 19:00:00,
2013-03-17 15:05:00,38.5,21.0,30.17,NE,44,7.0,7.0,49,0.00,,,0.00,Wunderground v.1.15,2013-03-17 19:05:00,
2013-03-17 15:15:00,37.9,20.9,30.17,NNE,24,7.0,12.0,50,0.00,,,0.00,Wunderground v.1.15,2013-03-17 19:15:00,
2013-03-17 15:25:00,37.9,21.4,30.17,NE,51,6.0,8.0,51,0.00,,,0.00,Wunderground v.1.15,2013-03-17 19:25:00,
2013-03-17 15:35:00,38.3,21.3,30.17,NNE,27,7.0,13.0,50,0.00,,,0.00,Wunderground v.1.15,2013-03-17 19:35:00,
2013-03-17 15:40:00,38.6,21.5,30.17,NW,316,6.0,6.0,50,0.00,,,0.00,Wunderground v.1.15,2013-03-17 19:40:00,
2013-03-17 15:50:00,39.2,22.1,30.17,NNW,342,5.0,12.0,50,0.00,,,0.00,Wunderground v.1.15,2013-03-17 19:50:00,
2013-03-17 16:00:00,38.9,21.3,30.17,NNE,26,6.0,6.0,49,0.00,,,0.00,Wunderground v.1.15,2013-03-17 20:00:00,
2013-03-17 16:11:00,39.1,22.0,30.17,NE,34,7.0,12.0,50,0.00,,,0.00,Wunderground v.1.15,2013-03-17 20:11:00,
2013-03-17 16:20:00,39.1,22.0,30.17,NNE,14,7.0,12.0,50,0.00,,,0.00,Wunderground v.1.15,2013-03-17 20:20:00,
2013-03-17 16:31:00,38.9,21.8,30.17,NE,43,9.0,9.0,50,0.00,,,0.00,Wunderground v.1.15,2013-03-17 20:31:00,
2013-03-17 16:40:00,39.1,22.0,30.17,NE,47,7.0,9.0,50,0.00,,,0.00,Wunderground v.1.15,2013-03-17 20:40:00,
2013-03-17 16:50:00,39.1,21.5,30.17,North,355,5.0,5.0,49,0.00,,,0.00,Wunderground v.1.15,2013-03-17 20:50:00,
2013-03-17 17:00:00,38.9,22.8,30.18,North,9,5.0,5.0,52,0.00,,,0.00,Wunderground v.1.15,2013-03-17 21:00:00,
2013-03-17 17:10:00,39.1,22.9,30.17,North,5,7.0,10.0,52,0.00,,,0.00,Wunderground v.1.15,2013-03-17 21:10:00,
2013-03-17 17:15:00,39.2,23.0,30.17,NNE,22,7.0,7.0,52,0.00,,,0.00,Wunderground v.1.15,2013-03-17 21:15:00,
2013-03-17 17:25:00,38.9,21.8,30.18,NE,38,7.0,7.0,50,0.00,,,0.00,Wunderground v.1.15,2013-03-17 21:25:00,
2013-03-17 17:30:00,38.6,22.0,30.18,NNE,29,7.0,8.0,51,0.00,,,0.00,Wunderground v.1.15,2013-03-17 21:30:00,
2013-03-17 17:40:00,38.2,21.6,30.18,NNE,31,6.0,7.0,51,0.00,,,0.00,Wunderground v.1.15,2013-03-17 21:40:00,
2013-03-17 17:45:00,38.2,22.1,30.18,NNE,15,7.0,7.0,52,0.00,,,0.00,Wunderground v.1.15,2013-03-17 21:45:00,
2013-03-17 17:50:00,38.2,22.1,30.19,NNE,20,7.0,7.0,52,0.00,,,0.00,Wunderground v.1.15,2013-03-17 21:50:00,
2013-03-17 18:00:00,38.1,22.0,30.19,East,82,5.0,7.0,52,0.00,,,0.00,Wunderground v.1.15,2013-03-17 22:00:00,
2013-03-17 18:10:00,38.1,22.0,30.20,NE,36,6.0,6.0,52,0.00,,,0.00,Wunderground v.1.15,2013-03-17 22:10:00,
2013-03-17 18:21:00,37.8,21.7,30.20,North,5,6.0,6.0,52,0.00,,,0.00,Wunderground v.1.15,2013-03-17 22:21:00,
2013-03-17 18:35:00,37.6,21.5,30.20,NNE,30,5.0,5.0,52,0.00,,,0.00,Wunderground v.1.15,2013-03-17 22:35:00,
2013-03-17 18:41:00,37.5,21.9,30.20,North,355,4.0,5.0,53,0.00,,,0.00,Wunderground v.1.15,2013-03-17 22:41:00,
2013-03-17 18:50:00,37.5,21.9,30.20,North,350,4.0,8.0,53,0.00,,,0.00,Wunderground v.1.15,2013-03-17 22:50:00,
2013-03-17 19:01:00,37.3,21.7,30.21,North,9,4.0,4.0,53,0.00,,,0.00,Wunderground v.1.15,2013-03-17 23:01:00,
2013-03-17 19:11:00,37.0,21.9,30.21,NNE,19,3.0,3.0,54,0.00,,,0.00,Wunderground v.1.15,2013-03-17 23:11:00,
2013-03-17 19:16:00,36.9,21.8,30.22,NNE,19,3.0,3.0,54,0.00,,,0.00,Wunderground v.1.15,2013-03-17 23:16:00,
2013-03-17 19:25:00,36.8,22.1,30.22,NNE,12,2.0,2.0,55,0.00,,,0.00,Wunderground v.1.15,2013-03-17 23:25:00,
2013-03-17 19:30:00,36.6,21.5,30.22,NNE,13,2.0,2.0,54,0.00,,,0.00,Wunderground v.1.15,2013-03-17 23:30:00,
2013-03-17 19:35:00,36.6,21.9,30.22,NE,35,3.0,3.0,55,0.00,,,0.00,Wunderground v.1.15,2013-03-17 23:35:00,
2013-03-17 19:50:00,36.3,21.7,30.23,ENE,59,3.0,3.0,55,0.00,,,0.00,Wunderground v.1.15,2013-03-17 23:50:00,
2013-03-17 19:56:00,36.3,22.1,30.23,ENE,59,3.0,3.0,56,0.00,,,0.00,Wunderground v.1.15,2013-03-17 23:56:00,
2013-03-17 20:05:00,36.2,22.0,30.23,NNE,30,1.0,2.0,56,0.00,,,0.00,Wunderground v.1.15,2013-03-18 00:05:00,
2013-03-17 20:10:00,36.2,22.0,30.23,NNE,30,2.0,2.0,56,0.00,,,0.00,Wunderground v.1.15,2013-03-18 00:10:00,
2013-03-17 20:16:00,36.2,22.0,30.23,NNE,30,2.0,6.0,56,0.00,,,0.00,Wunderground v.1.15,2013-03-18 00:16:00,
2013-03-17 20:25:00,36.0,21.8,30.23,NNE,30,2.0,3.0,56,0.00,,,0.00,Wunderground v.1.15,2013-03-18 00:25:00,
2013-03-17 20:35:00,36.0,22.2,30.24,NNE,30,2.0,2.0,57,0.00,,,0.00,Wunderground v.1.15,2013-03-18 00:35:00,
2013-03-17 20:40:00,35.9,22.1,30.24,NNE,30,2.0,2.0,57,0.00,,,0.00,Wunderground v.1.15,2013-03-18 00:40:00,
2013-03-17 20:50:00,35.8,22.5,30.24,NNE,30,1.0,2.0,58,0.00,,,0.00,Wunderground v.1.15,2013-03-18 00:50:00,
2013-03-17 20:55:00,35.8,21.6,30.24,NNE,30,1.0,2.0,56,0.00,,,0.00,Wunderground v.1.15,2013-03-18 00:55:00,
2013-03-17 21:01:00,35.8,22.0,30.24,NNE,30,1.0,1.0,57,0.00,,,0.00,Wunderground v.1.15,2013-03-18 01:01:00,
2013-03-17 21:10:00,35.8,22.0,30.24,NNE,30,2.0,4.0,57,0.00,,,0.00,Wunderground v.1.15,2013-03-18 01:10:00,
2013-03-17 21:16:00,35.8,22.0,30.24,NNE,30,2.0,2.0,57,0.00,,,0.00,Wunderground v.1.15,2013-03-18 01:16:00,
2013-03-17 21:25:00,35.6,21.9,30.24,NNE,30,2.0,5.0,57,0.00,,,0.00,Wunderground v.1.15,2013-03-18 01:25:00,
2013-03-17 21:30:00,35.6,22.3,30.24,NNE,30,2.0,2.0,58,0.00,,,0.00,Wunderground v.1.15,2013-03-18 01:30:00,
2013-03-17 21:40:00,35.3,22.4,30.25,NNE,30,2.0,3.0,59,0.00,,,0.00,Wunderground v.1.15,2013-03-18 01:40:00,
2013-03-17 21:50:00,35.2,22.3,30.25,NNE,30,2.0,2.0,59,0.00,,,0.00,Wunderground v.1.15,2013-03-18 01:50:00,
2013-03-17 22:01:00,35.0,22.1,30.25,NNE,30,1.0,2.0,59,0.00,,,0.00,Wunderground v.1.15,2013-03-18 02:01:00,
2013-03-17 22:10:00,35.0,22.5,30.25,NNE,30,2.0,3.0,60,0.00,,,0.00,Wunderground v.1.15,2013-03-18 02:10:00,
2013-03-17 22:20:00,34.9,22.4,30.26,NNE,30,2.0,4.0,60,0.00,,,0.00,Wunderground v.1.15,2013-03-18 02:20:00,
2013-03-17 22:25:00,34.9,22.4,30.26,NNE,30,1.0,4.0,60,0.00,,,0.00,Wunderground v.1.15,2013-03-18 02:25:00,
2013-03-17 22:30:00,34.9,22.4,30.26,NNE,30,1.0,2.0,60,0.00,,,0.00,Wunderground v.1.15,2013-03-18 02:30:00,
2013-03-17 22:40:00,34.9,22.0,30.26,NNE,30,2.0,4.0,59,0.00,,,0.00,Wunderground v.1.15,2013-03-18 02:40:00,
2013-03-17 22:45:00,34.9,22.0,30.26,NNE,30,2.0,4.0,59,0.00,,,0.00,Wunderground v.1.15,2013-03-18 02:45:00,
2013-03-17 22:50:00,34.9,22.4,30.26,NNE,30,2.0,2.0,60,0.00,,,0.00,Wunderground v.1.15,2013-03-18 02:50:00,
2013-03-17 23:00:00,34.8,22.3,30.26,NE,52,1.0,1.0,60,0.00,,,0.00,Wunderground v.1.15,2013-03-18 03:00:00,
2013-03-17 23:05:00,34.9,22.0,30.26,NE,52,2.0,2.0,59,0.00,,,0.00,Wunderground v.1.15,2013-03-18 03:05:00,
2013-03-17 23:20:00,34.8,21.9,30.26,NE,52,2.0,2.0,59,0.00,,,0.00,Wunderground v.1.15,2013-03-18 03:20:00,
2013-03-17 23:25:00,34.8,21.9,30.26,NE,52,2.0,2.0,59,0.00,,,0.00,Wunderground v.1.15,2013-03-18 03:25:00,
2013-03-17 23:35:00,34.8,21.1,30.26,ENE,78,2.0,2.0,57,0.00,,,0.00,Wunderground v.1.15,2013-03-18 03:35:00,
2013-03-17 23:40:00,34.8,20.7,30.26,East,85,3.0,4.0,56,0.00,,,0.00,Wunderground v.1.15,2013-03-18 03:40:00,
2013-03-17 23:46:00,34.8,20.3,30.26,ENE,73,4.0,4.0,55,0.00,,,0.00,Wunderground v.1.15,2013-03-18 03:46:00,
2013-03-17 23:55:00,34.9,19.9,30.26,ENE,58,4.0,6.0,54,0.00,,,0.00,Wunderground v.1.15,2013-03-18 03:55:00,